Simultaneous Nadir Overpasses (SNOs) Predictions

Prediction of SNOs over PacNW region [( 10.00, 139.50) to ( 22.70, 165.60)] between NOAA-19 and NPP Satellites:

Table of predicted SNOs over PacNW region for the next 30.0 days since TLE Epoch: 3/18/2013
Index Date (NOAA-19) Time (NOAA-19) NOAA-19 Lat,Lon Date (NPP) Time (NPP) NPP Lat,Lon Distance(km) Time Diff (sec)
1 03/19/2013 03:10:46 18.06, 153.50 03/19/2013 03:12:05 17.28, 150.15 366.27 79
2 03/19/2013 15:47:40 12.33, 149.14 03/19/2013 15:44:42 12.84, 146.72 268.89 178
3 03/31/2013 02:40:16 12.15, 162.18 03/31/2013 02:43:16 11.29, 158.35 427.86 180
4 03/31/2013 15:17:22 17.58, 157.65 03/31/2013 15:15:55 18.18, 154.82 307.48 87
5 04/12/2013 03:55:35 19.35, 142.20 04/12/2013 03:56:32 18.57, 138.87 361.27 57
6 04/12/2013 14:50:44 10.01, 163.13 04/12/2013 14:47:47 10.27, 160.59 278.94 177
